Regional Weather Roundup
Issued by NWS

Home | Current Version | Previous Version | Text Only | Print | Product List | Glossary On
Versions: 1 2 3 4 5 6 7 8 9 10 11 12 13 14 15 16 17 18 19 20 21 22 23 24 25 26 27 28 29 30 31 32 33 34 35 36 37 38 39 40 41 42 43 44 45 46 47 48 49 50
000
ASUS42 KFFC 251103
RWRGA
WEATHER ROUNDUP FOR GEORGIA
NATIONAL WEATHER SERVICE PEACHTREE CITY GA
700 AM EDT TUE JUL 25 2017

NOTE: "FAIR" INDICATES FEW OR NO CLOUDS BELOW 12,000 FEET WITH NO
SIGNIFICANT WEATHER AND/OR OBSTRUCTIONS TO VISIBILITY.

* = USE WITH CAUTION. THE STATIONS MARKED WITH AN ASTERISK MAY NOT
REPORT WEATHER SUCH AS PRECIPITATION, FOG, OR THUNDER AND ARE NOT
QUALITY CONTROLLED BY NWS.

THE REMARK "TC" DENOTES TEMPERATURE READING IN DEGREES CELSIUS.

GAZ001>058-251200-
NORTH GEORGIA

CITY           SKY/WX    TMP DP  RH WIND       PRES   REMARKS
ATLANTA        CLOUDY    73  71  93 W6        30.09R
ATHENS         CLOUDY    72  71  97 CALM      30.07R
CHAMBLEE       CLOUDY    73  71  93 CALM      30.09R
PEACHTREE CITY CLOUDY    72  72 100 CALM      30.10R
ROME           CLEAR     72  72 100 CALM      30.07R
WEST ATLANTA   CLOUDY    73  73 100 W3        30.09R
GAINESVILLE    PTCLDY    73  72  96 W5        30.11R
CARTERSVILLE   FOG       71  71 100 CALM      30.09R VSB 1/2


CITY           SKY/WX    TMP DP  RH WIND       PRES   REMARKS
LAWRENCEVILLE* MOCLDY    72  72 100 W6        30.09  FOG
MARIETTA       MOCLDY    72  70  93 W6        30.09R
KENNESAW*      MOCLDY    72  72 100 SW5       30.10
CANTON*        PTCLDY    73  73 100 CALM      30.11R FOG
$$

GAZ059>098-102>109-251200-
CENTRAL GEORGIA

CITY           SKY/WX    TMP DP  RH WIND       PRES   REMARKS
AUGUSTA-BUSH   CLOUDY    74  73  97 CALM      30.04R FOG
AUGUSTA-DANIEL MOCLDY    75  69  81 CALM      30.06R
COLUMBUS       CLOUDY    76  74  93 CALM      30.08R
MACON          CLOUDY    73  71  93 CALM      30.08R
ROBINS AFB     CLOUDY    74  72  94 CALM      30.07R


CITY           SKY/WX    TMP DP  RH WIND       PRES   REMARKS
LAGRANGE*      DRIZZLE   75  74  98 CALM      30.09R
SYLVANIA*      CLOUDY    76  76 100 CALM      30.07R FOG
MILLEDGEVILLE* CLOUDY    73  72  94 CALM      30.07R
$$

GAZ099>101-110>166-251200-
SOUTH GEORGIA

CITY           SKY/WX    TMP DP  RH WIND       PRES   REMARKS
SAVANNAH       MOCLDY    76  73  91 W3        30.07R
VALDOSTA       CLEAR     73  73 100 CALM      30.10R FOG
ALMA           PTCLDY    76  74  93 SW5       30.07R
ST SIMONS      MOCLDY    79  76  90 W6        30.07R
FT STEWART     PTCLDY    76  73  90 W5        30.05R
ALBANY         MOCLDY    76  75  97 W3        30.10R
HUNTER AFB     MOCLDY    76  74  93 SW5       30.04R
MOODY AFB      PTCLDY    76  74  92 SW6       30.08R
BRUNSWICK      MOCLDY    77  77 100 SW7       30.08R


CITY           SKY/WX    TMP DP  RH WIND       PRES   REMARKS
BAINBRIDGE*    PTCLDY    75  75 100 CALM      30.10R
MOULTRIE*      MOCLDY    75  73  94 CALM      30.11R FOG
VIDALIA*       CLOUDY    77  73  88 CALM      30.07S
WAYCROSS*      CLEAR     78  78 100 W5        30.08R
DOUGLAS*       CLOUDY    75  73  94 SW5       30.10R
$$




USA.gov is the U.S. government's official web portal to all federal, state and local government web resources and services.